This is the latest recevied weather packets stored in our database for station/object WX6HNX-6. If no packets are shown the sender has not sent any weather packets the latest 1 day(s).
| Time | Temp. | Humidity | Pressure | Rain* | Wind** | Luminosity | Snow |
|---|---|---|---|---|---|---|---|
| 1778037244 | 17.22° C | 59% | 1015.5 hPa | 0 mm | 0.89 m/s, 355° | - | - |
| 1778036945 | 17.78° C | 59% | 1015.4 hPa | 0 mm | 0.89 m/s, 355° | - | - |
| 1778036645 | 17.78° C | 58% | 1015.4 hPa | 0 mm | 0.89 m/s, 354° | - | - |
| 1778036044 | 18.33° C | 57% | 1015.2 hPa | 0 mm | 1.34 m/s, 345° | - | - |
| 1778035744 | 18.33° C | 57% | 1015.1 hPa | 0 mm | 1.34 m/s, 337° | - | - |
| 1778035446 | 18.33° C | 57% | 1015.1 hPa | 0 mm | 0.89 m/s, 355° | - | - |
| 1778035146 | 18.33° C | 57% | 1015 hPa | 0 mm | 1.79 m/s, 10° | - | - |
| 1778034845 | 18.89° C | 57% | 1015 hPa | 0 mm | 1.79 m/s, 14° | - | - |
| 1778034528 | 18.89° C | 56% | 1014.9 hPa | 0 mm | 1.79 m/s, 14° | - | - |
| 1778034228 | 18.89° C | 56% | 1014.9 hPa | 0 mm | 1.79 m/s, 14° | - | - |
| 1778033928 | 18.89° C | 56% | 1014.8 hPa | 0 mm | 1.34 m/s, 26° | - | - |
| 1778033628 | 18.89° C | 55% | 1014.7 hPa | 0 mm | 1.34 m/s, 31° | - | - |
| 1778033328 | 18.89° C | 56% | 1014.8 hPa | 0 mm | 2.24 m/s, 12° | - | - |
| 1778033028 | 18.89° C | 56% | 1014.8 hPa | 0 mm | 1.79 m/s, 28° | - | - |
| 1778032728 | 18.89° C | 56% | 1014.7 hPa | 0 mm | 1.79 m/s, 20° | - | - |
| 1778032428 | 18.89° C | 55% | 1014.7 hPa | 0 mm | 1.79 m/s, 15° | - | - |
| 1778032128 | 19.44° C | 54% | 1014.7 hPa | 0 mm | 1.34 m/s, 20° | - | - |
| 1778031828 | 19.44° C | 52% | 1014.6 hPa | 0 mm | 0.89 m/s, 345° | - | - |
| 1778031528 | 19.44° C | 52% | 1014.6 hPa | 0 mm | 0.89 m/s, 359° | - | - |
| 1778031228 | 19.44° C | 53% | 1014.6 hPa | 0 mm | 2.24 m/s, 337° | - | - |
| 1778030928 | 19.44° C | 53% | 1014.6 hPa | 0 mm | 1.79 m/s, 26° | - | - |
| 1778030629 | 20° C | 52% | 1014.6 hPa | 0 mm | 1.79 m/s, 18° | - | - |
| 1778030328 | 20° C | 52% | 1014.5 hPa | 0 mm | 1.79 m/s, 28° | - | - |
| 1778029874 | 20° C | 52% | 1014.5 hPa | 0 mm | 1.34 m/s, 34° | - | - |
| 1778029573 | 20° C | 52% | 1014.5 hPa | 0 mm | 1.79 m/s, 40° | - | - |
* Rain latest hour (hover to see other rain measurements)
** Current wind speed in m/s (hover to see current wind gust speed)